Location: Luna
(33.8188°N, 108.9564°W)
Time: 17:34:51
(UTC+00:00)

DELFI C3 - Visible Passes

Search period start: 28 March 2023 00:00
Search period end: 07 April 2023 00:00
Orbit: 476 x 489 km, 97.3° (Epoch: 27 March)

Date Brightness Start Highest point End Pass type
(mag) Time Alt. Az. Time Alt. Az. Time Alt. Az.
29 Mar ? 02:44:38 10° SW 02:46:47 15° W 02:48:56 10° WNW visible
30 Mar ? 02:18:21 10° SSW 02:21:34 33° W 02:24:48 10° NNW visible
02 Apr ? 02:36:31 10° SW 02:39:07 19° W 02:41:43 10° NW visible
03 Apr ? 02:10:10 10° S 02:13:33 43° W 02:16:56 10° NNW visible
05 Apr ? 02:54:38 10° WSW 02:55:49 11° W 02:57:01 10° WNW visible
06 Apr ? 02:26:56 10° SSW 02:29:55 25° W 02:32:54 10° NW visible
